[[{"header":{"parameterUnit":"m.s-1","parameterCategory":2,"la1":30.2991,"la2":30.254,"lo1":-89.0895,"lo2":-89.0444,"dy":0.0017,"dx":0.0017,"nx":28,"ny":28,"refTime":"2024-07-12T21:00:00:Z","depth":"0","parameterNumber":2,"parameterNumberName":"U-component_of_CURRENTS"},"data":[0,0,0,0,0,0,0,0,0,0,0,0,0,0,0,0,0,0,0,0,0,0,0,0,0,0,0,0,0,0,0,0,0,0,0,0,0,0,0,0,0,0,0,0,0,0,0,0,0,0,0,0,0,0,0,0,0,0,0.229,0.229,0,0.2324,0.2324,0.2325,0.2332,0.2332,0.2332,0.2332,0.2415,0.2417,0.242,0,0,0,0,0,0,0,0,0,0,0,0,0,0.2301,0.23,0.229,0.229,0.2291,0.2324,0.2324,0.2325,0.2332,0.2332,0.2332,0.2332,0.2414,0.2417,0.242,0,0,0,0,0,0,0,0,0,0,0,0,0,0.2311,0.23,0.229,0.2299,0.23,0.2324,0.2324,0.2325,0.2332,0.2332,0.2332,0.2331,0.2413,0.2417,0.242,0.2449,0,0,0.2431,0.2433,0,0,0,0,0,0,0,0,0.231,0.2311,0.2297,0.2298,0.23,0.2324,0.2359,0.2369,0.2332,0.232,0.2332,0.2331,0.2389,0.2395,0.2401,0.2453,0.2457,0.2432,0.2434,0.2435,0.2436,0,0,0,0,0,0,0,0.231,0.231,0.2303,0.2298,0.2299,0.2325,0.2325,0.2361,0.2357,0.2321,0.2322,0.2326,0.239,0.2397,0.2403,0.2458,0.2432,0.2435,0.2437,0.2438,0.2589,0.2591,0,0,0,0,0,0,0.2303,0.2309,0.2302,0.2304,0.2305,0.2325,0.2325,0.2316,0.2355,0.2361,0.2326,0.2326,0.2391,0.2399,0.2406,0.2482,0.2435,0.2439,0.2441,0.2587,0.2589,0.2591,0,0,0,0,0,0,0.2302,0.2301,0.2301,0.2308,0.231,0.2324,0.2314,0.2317,0.2324,0.2359,0.2365,0.233,0.2391,0.2401,0.2455,0.2484,0.244,0.2444,0.2585,0.2588,0.259,0.2609,0,0,0,0,0,0,0.2302,0.2301,0.2296,0.2307,0.2309,0.2316,0.2315,0.2318,0.2327,0.2327,0.2365,0.2372,0.2392,0.2449,0.2458,0.2488,0.2446,0.2583,0.2586,0.259,0.2606,0.2612,0.2617,0,0,0,0,0,0.2302,0.2295,0.2296,0.2295,0.2301,0.2317,0.232,0.233,0.2327,0.2334,0.237,0.2371,0.2477,0.2454,0.2464,0.2495,0.2581,0.2585,0.2589,0.2603,0.261,0.2617,0,0,0,0,0,0,0.2303,0.2296,0.2296,0.2288,0.2303,0.2318,0.2325,0.233,0.2361,0.2365,0.2393,0.2404,0.2469,0.2479,0.2452,0.2551,0.253,0.2536,0.2537,0.2544,0.255,0.2573,0.245,0,0,0,0,0,0.23,0.2288,0.2296,0.2293,0.2298,0.2311,0.232,0.2327,0.2354,0.2365,0.2397,0.244,0.2495,0.2514,0.2563,0.2607,0.2652,0.2636,0.2641,0.2646,0.2674,0.277,0.2787,0.2605,0.2605,0.2605,0,0,0.2302,0.2295,0.2291,0.2292,0.2302,0.232,0.2315,0.2328,0.2358,0.2372,0.2426,0.2466,0.2515,0.2577,0.2605,0.2585,0.2718,0.2651,0.2654,0.2681,0.2776,0.2794,0.281,0.2608,0.2607,0.2607,0,0,0.2301,0.2291,0.2285,0.2296,0.2309,0.2325,0.2328,0.2352,0.2374,0.242,0.2458,0.2523,0.2571,0.2635,0.2666,0.2733,0.2753,0.2732,0.2769,0.2861,0.2877,0.2891,0.2955,0.2975,0.2723,0.2723,0.2723,0,0.2307,0.2294,0.2291,0.2296,0.2312,0.2328,0.2345,0.2375,0.2419,0.2455,0.2438,0.2572,0.261,0.2718,0.2743,0.2749,0.2789,0.2733,0.2868,0.2884,0.2899,0.296,0.2982,0.2724,0.2724,0.2724,0.2724,0,0.2304,0.2303,0.2303,0.2314,0.2336,0.2351,0.2391,0.2427,0.2449,0.2485,0.2585,0.2646,0.2727,0.2746,0.2764,0.2891,0.2882,0.2871,0.2848,0.2918,0.2978,0.3001,0.2726,0.2726,0.2725,0.2725,0,0,0.23,0.2299,0.2302,0.2308,0.2346,0.2361,0.2424,0.2488,0.2534,0.2588,0.2664,0.2771,0.2804,0.2848,0.2887,0.2963,0.3095,0.2957,0.2961,0.3014,0.3284,0.3267,0.3289,0.31,0.3105,0.3108,0.3277,0,0.2304,0.2302,0.2316,0.2344,0.2351,0.2398,0.2454,0.2519,0.2576,0.2655,0.2742,0.2828,0.2842,0.2883,0.2971,0.3075,0.3159,0.305,0.3215,0.322,0.3192,0.3317,0.3234,0.3378,0.33,0.3303,0.3306,0,0.2299,0.2298,0.231,0.2349,0.236,0.2388,0.248,0.2532,0.2654,0.2697,0.2803,0.2874,0.3028,0.3006,0.3232,0.3157,0.3237,0.3299,0.3306,0.3308,0.3247,0.3301,0.3422,0.322,0.3341,0.3338,0.3336,0,0.2278,0.23,0.2305,0.2316,0.2364,0.2394,0.2435,0.2543,0.2596,0.2736,0.2784,0.2963,0.3043,0.3195,0.3343,0.3297,0.3569,0.3515,0.3577,0.3574,0.355,0.3538,0.3497,0.3686,0.3686,0.3685,0.3685,0,0.2266,0.2273,0.2287,0.2286,0.2313,0.2364,0.2421,0.2487,0.2595,0.267,0.2802,0.2901,0.3095,0.3265,0.3388,0.3573,0.3617,0.3633,0.3643,0.355,0.3537,0.3395,0.3304,0.3691,0.369,0.3689,0.3688,0,0.2233,0.2243,0.2244,0.2279,0.2291,0.2308,0.2376,0.2427,0.2526,0.2631,0.2681,0.288,0.3102,0.3299,0.355,0.3617,0.369,0.3845,0.3712,0.3704,0.3535,0.345,0.3406,0.3331,0.394,0.3941,0.3942,0,0.221,0.22,0.2215,0.2214,0.2222,0.2253,0.2284,0.2378,0.2436,0.2624,0.2677,0.2911,0.3077,0.3433,0.3645,0.3886,0.3719,0.3894,0.3801,0.3558,0.3471,0.3301,0.3228,0.3769,0.3768,0.3767,0.3767,0,0.2163,0.2164,0.2161,0.2152,0.2165,0.219,0.2238,0.2263,0.2395,0.2497,0.2657,0.2806,0.3161,0.3368,0.367,0.3822,0.3665,0.3886,0.3688,0.3401,0.3167,0.3086,0.3591,0.3762,0.3763,0.3763,0.3763,0.3764,0.2123,0.2105,0.2091,0.209,0.2097,0.2108,0.2116,0.2187,0.2262,0.2394,0.2572,0.2761,0.3053,0.3478,0.3615,0.3677,0.3645,0.3571,0.3512,0.3378,0.323,0.3715,0.3853,0.3854,0.3855,0.3856,0.3856,0,0.2071,0.2051,0.2036,0.202,0.2006,0.2042,0.2077,0.2088,0.2148,0.23,0.244,0.2706,0.2911,0.3151,0.3338,0.3278,0.3204,0.3172,0.289,0.286,0.3351,0.3262,0.3212,0.3212,0.3212,0.3212,0.3213,0.3213,0.2037,0.2003,0.1998,0.1939,0.1929,0.1913,0.1923,0.1951,0.203,0.2141,0.2269,0.2423,0.2642,0.277,0.2779,0.2799,0.2563,0.2499,0.2441,0.2723,0.2752,0.278,0.267,0.2497,0.2496,0.1869,0.1864,0.186]},{"header":{"parameterUnit":"m.s-1","parameterCategory":2,"la1":30.2991,"la2":30.254,"lo1":-89.0895,"lo2":-89.0444,"dy":0.0017,"dx":0.0017,"nx":28,"ny":28,"refTime":"2024-07-12T21:00:00:Z","depth":"0","parameterNumber":3,"parameterNumberName":"V-component_of_CURRENTS"},"data":[0,0,0,0,0,0,0,0,0,0,0,0,0,0,0,0,0,0,0,0,0,0,0,0,0,0,0,0,0,0,0,0,0,0,0,0,0,0,0,0,0,0,0,0,0,0,0,0,0,0,0,0,0,0,0,0,0,0,0.0697,0.0697,0,0.0723,0.0723,0.0723,0.0729,0.0729,0.0729,0.0729,0.0657,0.0655,0.0653,0,0,0,0,0,0,0,0,0,0,0,0,0,0.0652,0.0653,0.0697,0.0697,0.0698,0.0723,0.0723,0.0723,0.0729,0.0729,0.0729,0.0729,0.0657,0.0655,0.0653,0,0,0,0,0,0,0,0,0,0,0,0,0,0.0673,0.0653,0.0697,0.0704,0.0705,0.0723,0.0723,0.0723,0.0729,0.0729,0.0729,0.0729,0.0658,0.0655,0.0652,0.0638,0,0,0.0644,0.0643,0,0,0,0,0,0,0,0,0.0672,0.0675,0.0703,0.0704,0.0705,0.0724,0.0681,0.069,0.0729,0.0719,0.0729,0.0729,0.0671,0.0667,0.0672,0.0635,0.0631,0.0644,0.0642,0.0641,0.064,0,0,0,0,0,0,0,0.067,0.0674,0.0706,0.0703,0.0705,0.0707,0.0709,0.0683,0.0692,0.072,0.072,0.0725,0.067,0.0675,0.067,0.063,0.0644,0.0641,0.064,0.0639,0.0566,0.0566,0,0,0,0,0,0,0.067,0.0672,0.0705,0.0707,0.0689,0.0708,0.0711,0.0717,0.0695,0.0693,0.0725,0.0725,0.0679,0.0673,0.0667,0.0666,0.0641,0.0638,0.0637,0.0566,0.0566,0.0566,0,0,0,0,0,0,0.0669,0.0673,0.0704,0.0691,0.0695,0.0709,0.0716,0.0717,0.0721,0.0701,0.0696,0.0726,0.0679,0.0671,0.0651,0.0662,0.0637,0.0635,0.0567,0.0566,0.0566,0.0651,0,0,0,0,0,0,0.0667,0.0672,0.0676,0.0691,0.0696,0.0719,0.0716,0.0718,0.0724,0.0725,0.07,0.0693,0.0678,0.0656,0.0648,0.0658,0.0632,0.0567,0.0566,0.0566,0.0648,0.0653,0.0658,0,0,0,0,0,0.0666,0.0672,0.0676,0.068,0.0701,0.0719,0.0722,0.073,0.0724,0.0731,0.0715,0.0694,0.0647,0.0654,0.0645,0.0654,0.0567,0.0567,0.0566,0.0646,0.0652,0.0658,0,0,0,0,0,0,0.0648,0.0674,0.0679,0.069,0.0706,0.0721,0.0729,0.0729,0.0724,0.072,0.0695,0.0688,0.0674,0.0644,0.0652,0.0627,0.0601,0.0599,0.0665,0.067,0.0675,0.0694,0.063,0,0,0,0,0,0.0648,0.0663,0.0683,0.0692,0.0702,0.0714,0.0721,0.0727,0.0726,0.0724,0.0711,0.0686,0.0665,0.0653,0.0631,0.0617,0.0588,0.0613,0.0617,0.0622,0.0629,0.0594,0.0597,0.0564,0.0564,0.0564,0,0,0.0644,0.0659,0.0667,0.0691,0.0703,0.0727,0.0718,0.0733,0.075,0.0714,0.0727,0.0702,0.0664,0.0659,0.0648,0.0636,0.0616,0.0621,0.0626,0.0631,0.0594,0.0597,0.06,0.0563,0.0563,0.0563,0,0,0.065,0.0657,0.0678,0.0696,0.0721,0.0732,0.0736,0.0755,0.076,0.0764,0.0746,0.0732,0.0697,0.0689,0.0673,0.0683,0.0641,0.0665,0.0708,0.0674,0.0677,0.068,0.0654,0.0654,0.0668,0.0668,0.0668,0,0.0641,0.0676,0.0685,0.0713,0.0736,0.0736,0.0767,0.0772,0.0782,0.0792,0.0773,0.0745,0.0716,0.0715,0.0723,0.0697,0.0669,0.0698,0.0683,0.0685,0.0686,0.0659,0.0657,0.0672,0.0672,0.0671,0.0671,0,0.0672,0.0701,0.0715,0.0756,0.0776,0.0802,0.0819,0.0832,0.0831,0.0839,0.0838,0.0804,0.0791,0.0775,0.0753,0.0749,0.0725,0.0697,0.0678,0.0695,0.0665,0.0661,0.0678,0.0677,0.0675,0.0674,0,0,0.065,0.0724,0.0729,0.0768,0.0806,0.0829,0.0856,0.0889,0.0913,0.0902,0.0931,0.0893,0.088,0.086,0.083,0.0801,0.0788,0.0758,0.0754,0.0749,0.0717,0.0711,0.0706,0.0756,0.0756,0.0756,0.0697,0,0.0675,0.0744,0.0773,0.0838,0.0879,0.0898,0.0929,0.0953,0.0961,0.0986,0.0953,0.096,0.091,0.091,0.0875,0.0817,0.0781,0.0807,0.0686,0.0683,0.0689,0.0703,0.0721,0.0671,0.0693,0.0692,0.0692,0,0.0701,0.0749,0.082,0.0902,0.0921,0.0953,0.1011,0.104,0.1064,0.107,0.1068,0.1048,0.103,0.0972,0.0879,0.0897,0.0813,0.0754,0.0749,0.0713,0.0671,0.0653,0.0664,0.0534,0.0686,0.0687,0.0687,0,0.0697,0.0784,0.0846,0.0873,0.0955,0.0987,0.1026,0.1064,0.1099,0.1129,0.1155,0.1121,0.1113,0.1011,0.0909,0.0888,0.0797,0.0749,0.066,0.0659,0.0635,0.0633,0.0521,0.0663,0.0663,0.0663,0.0663,0,0.072,0.0769,0.0851,0.0886,0.0958,0.1007,0.1073,0.1105,0.1157,0.1207,0.12,0.1228,0.1118,0.1064,0.0942,0.0812,0.082,0.0675,0.0645,0.0665,0.0666,0.0519,0.0458,0.0661,0.0661,0.0662,0.0662,0,0.071,0.0764,0.0838,0.0929,0.096,0.1009,0.1104,0.1153,0.1201,0.1266,0.1284,0.1304,0.125,0.1139,0.099,0.0864,0.0677,0.0676,0.0719,0.0695,0.048,0.0424,0.031,0.029,0.0562,0.0562,0.0561,0,0.0715,0.0753,0.0855,0.09,0.0944,0.1022,0.1081,0.1158,0.1214,0.1312,0.1348,0.1348,0.1363,0.118,0.0979,0.0787,0.0672,0.0644,0.0597,0.0479,0.0393,0.0368,0.0358,0.0597,0.0597,0.0597,0.0597,0,0.0723,0.0752,0.0811,0.0898,0.0969,0.1056,0.1145,0.1196,0.1292,0.1369,0.1454,0.1488,0.136,0.1214,0.098,0.083,0.0588,0.0634,0.0495,0.0404,0.0385,0.0349,0.0628,0.0597,0.0597,0.0597,0.0597,0.0597,0.0715,0.075,0.0821,0.0904,0.0987,0.1083,0.1148,0.1252,0.1361,0.1498,0.1523,0.1613,0.141,0.1119,0.0916,0.0546,0.056,0.0409,0.035,0.0333,0.032,0.0607,0.0552,0.0552,0.0551,0.0551,0.0551,0,0.0706,0.0754,0.0829,0.093,0.1012,0.1065,0.1193,0.1272,0.1401,0.155,0.1649,0.162,0.1355,0.1056,0.0563,0.0296,0.0239,0.016,0.0113,0.0116,0.0346,0.0352,0.0273,0.0273,0.0273,0.0273,0.0273,0.0274,0.0706,0.0762,0.0808,0.0931,0.1005,0.1114,0.1185,0.1321,0.1446,0.1631,0.1717,0.1773,0.1524,0.0698,0.0124,0.0008,-0.013,-0.0154,-0.0223,-0.0103,-0.0084,-0.0067,-0.0077,-0.0245,-0.0246,-0.04,-0.0402,-0.0404]}],[{"header":{"parameterUnit":"m.s-1","parameterCategory":2,"la1":30.2991,"la2":30.254,"lo1":-89.0895,"lo2":-89.0444,"dy":0.0017,"dx":0.0017,"nx":28,"ny":28,"refTime":"2024-07-12T21:00:00:Z","depth":"2","parameterNumber":2,"parameterNumberName":"U-component_of_CURRENTS"},"data":[0,0,0,0,0,0,0,0,0,0,0,0,0,0,0,0,0,0,0,0,0,0,0,0,0,0,0,0,0,0,0,0,0,0,0,0,0,0,0,0,0,0,0,0,0,0,0,0,0,0,0,0,0,0,0,0,0,0,0.1298,0.1299,0,0.1364,0.1365,0.1366,0.1403,0.1403,0.1403,0.1403,0.1447,0.1448,0.1449,0,0,0,0,0,0,0,0,0,0,0,0,0,0.1231,0.1232,0.1298,0.1299,0.13,0.1364,0.1365,0.1366,0.1403,0.1403,0.1403,0.1403,0.1446,0.1447,0.1449,0,0,0,0,0,0,0,0,0,0,0,0,0,0.1274,0.1232,0.1298,0.1327,0.133,0.1364,0.1365,0.1366,0.1403,0.1403,0.1403,0.1404,0.1446,0.1447,0.1449,0.1451,0,0,0.1453,0.1454,0,0,0,0,0,0,0,0,0.1271,0.1276,0.1322,0.1325,0.1329,0.1377,0.1357,0.1394,0.1403,0.1374,0.1403,0.1404,0.1421,0.1425,0.1436,0.1453,0.1455,0.1453,0.1454,0.1455,0.1455,0,0,0,0,0,0,0,0.1268,0.1274,0.1323,0.1323,0.1327,0.1346,0.1352,0.1364,0.1394,0.1377,0.138,0.1389,0.1423,0.1434,0.1437,0.1456,0.1453,0.1454,0.1455,0.1456,0.1534,0.1535,0,0,0,0,0,0,0.1261,0.1271,0.1321,0.1325,0.1301,0.1347,0.1354,0.136,0.1394,0.14,0.1388,0.139,0.1431,0.1435,0.1438,0.15,0.1455,0.1456,0.1457,0.1533,0.1534,0.1535,0,0,0,0,0,0,0.1259,0.1264,0.1319,0.13,0.1309,0.1348,0.1355,0.1361,0.1383,0.1404,0.1409,0.1405,0.1432,0.1436,0.1472,0.1499,0.1457,0.1458,0.1531,0.1533,0.1535,0.1586,0,0,0,0,0,0,0.1256,0.1263,0.1267,0.13,0.131,0.1343,0.1355,0.1362,0.1388,0.1391,0.1419,0.1423,0.1432,0.147,0.1473,0.1501,0.1459,0.153,0.1532,0.1534,0.1582,0.1589,0.1595,0,0,0,0,0,0.1254,0.1253,0.1267,0.1273,0.1313,0.1343,0.135,0.1378,0.1388,0.1399,0.1429,0.1423,0.1487,0.1472,0.1476,0.1504,0.1528,0.1531,0.1534,0.158,0.1588,0.1594,0,0,0,0,0,0,0.1224,0.1258,0.1273,0.1283,0.1315,0.135,0.1362,0.1382,0.1414,0.1421,0.1439,0.1446,0.1489,0.1486,0.147,0.1533,0.1506,0.151,0.154,0.1547,0.1553,0.1548,0.146,0,0,0,0,0,0.122,0.1231,0.1268,0.1278,0.1293,0.133,0.1347,0.1369,0.1401,0.1415,0.1441,0.1468,0.1501,0.1516,0.1538,0.1569,0.1579,0.1589,0.1595,0.16,0.1599,0.1646,0.1657,0.1544,0.1544,0.1544,0,0,0.121,0.1232,0.1237,0.1273,0.1299,0.1327,0.1341,0.137,0.1401,0.1414,0.1463,0.149,0.1514,0.1558,0.1576,0.1561,0.164,0.1603,0.1608,0.1604,0.165,0.1661,0.1671,0.1546,0.1546,0.1546,0,0,0.1199,0.1217,0.1227,0.1255,0.1298,0.1326,0.1336,0.1382,0.141,0.1459,0.1484,0.1528,0.1568,0.16,0.1618,0.1667,0.1672,0.1675,0.1702,0.1749,0.1759,0.1767,0.1806,0.1818,0.1677,0.1677,0.1677,0,0.1188,0.1209,0.1234,0.1257,0.1287,0.1326,0.1354,0.1387,0.1443,0.1476,0.1478,0.1572,0.1589,0.1655,0.1678,0.1681,0.1707,0.1674,0.1758,0.1766,0.1774,0.1812,0.1824,0.1679,0.1679,0.1679,0.1679,0,0.119,0.1214,0.1223,0.127,0.1302,0.1331,0.1384,0.1424,0.1465,0.1506,0.1582,0.1618,0.1679,0.1691,0.1702,0.1772,0.1773,0.1762,0.1739,0.1788,0.1825,0.1837,0.1683,0.1682,0.1682,0.1681,0,0,0.1155,0.1213,0.122,0.1249,0.1316,0.1342,0.1401,0.1471,0.1519,0.1575,0.1644,0.1706,0.1738,0.1761,0.1785,0.1818,0.1901,0.1817,0.1819,0.1856,0.201,0.19,0.1902,0.1911,0.1914,0.1915,0.2017,0,0.1157,0.1196,0.1233,0.1284,0.1314,0.1376,0.1432,0.15,0.1561,0.1635,0.169,0.1761,0.1762,0.1805,0.1844,0.1893,0.1933,0.1874,0.1956,0.1958,0.1854,0.1912,0.1673,0.1734,0.2029,0.203,0.2032,0,0.1155,0.1186,0.1231,0.1308,0.1328,0.137,0.1472,0.1527,0.1634,0.1687,0.1767,0.1815,0.1903,0.1881,0.1992,0.1961,0.1992,0.2011,0.2016,0.1899,0.1868,0.173,0.1744,0.2051,0.205,0.2048,0.2047,0,0.1126,0.1189,0.1226,0.1251,0.1339,0.1384,0.1443,0.1548,0.1605,0.1728,0.1788,0.1888,0.1956,0.2012,0.2074,0.2048,0.2177,0.2144,0.2071,0.2065,0.1867,0.1837,0.221,0.221,0.221,0.2209,0.2209,0,0.1119,0.1149,0.1216,0.1237,0.1296,0.1371,0.1449,0.1525,0.1638,0.171,0.1816,0.1889,0.1993,0.2079,0.2111,0.2137,0.2219,0.2085,0.2085,0.1877,0.1849,0.2119,0.2107,0.2213,0.2212,0.2212,0.2211,0,0.1084,0.1126,0.1167,0.1252,0.1281,0.1326,0.144,0.1499,0.1617,0.1716,0.1763,0.1919,0.2037,0.2124,0.2226,0.2177,0.2213,0.2199,0.1945,0.191,0.2058,0.2048,0.2118,0.2115,0.2112,0.211,0.2108,0,0.1069,0.1086,0.1159,0.1184,0.1225,0.1299,0.1355,0.1477,0.1536,0.1721,0.1763,0.1924,0.1998,0.2115,0.2034,0.2052,0.221,0.1885,0.1765,0.2057,0.2051,0.2044,0.2038,0.1541,0.1535,0.153,0.1526,0,0.1042,0.1066,0.1098,0.1148,0.12,0.1253,0.1339,0.138,0.1525,0.1616,0.1745,0.182,0.1866,0.178,0.1792,0.1758,0.1853,0.1775,0.2178,0.1584,0.1516,0.1509,0.1521,0.148,0.1484,0.1488,0.149,0.1492,0.1017,0.103,0.1072,0.112,0.1165,0.1212,0.1246,0.1326,0.1411,0.1529,0.1629,0.1667,0.1537,0.1411,0.1409,0.1424,0.1497,0.1469,0.1484,0.1505,0.1403,0.1332,0.1243,0.1246,0.1249,0.1251,0.1253,0,0.1001,0.1029,0.1051,0.1096,0.1115,0.118,0.1238,0.1251,0.1317,0.1394,0.1471,0.1186,0.1115,0.1153,0.1027,0.0969,0.0939,0.1035,0.1009,0.1048,0.1085,0.0964,0.0687,0.0687,0.0687,0.0687,0,0,0.0996,0.1009,0.102,0.104,0.1085,0.1124,0.1157,0.116,0.1174,0.1136,0.1114,0.1075,0.1023,0.0805,0.074,0.0781,0.0937,0.0741,0.1163,0.1169,0.1208,0.1264,0.1111,0,0,0,0,0]},{"header":{"parameterUnit":"m.s-1","parameterCategory":2,"la1":30.2991,"la2":30.254,"lo1":-89.0895,"lo2":-89.0444,"dy":0.0017,"dx":0.0017,"nx":28,"ny":28,"refTime":"2024-07-12T21:00:00:Z","depth":"2","parameterNumber":3,"parameterNumberName":"V-component_of_CURRENTS"},"data":[0,0,0,0,0,0,0,0,0,0,0,0,0,0,0,0,0,0,0,0,0,0,0,0,0,0,0,0,0,0,0,0,0,0,0,0,0,0,0,0,0,0,0,0,0,0,0,0,0,0,0,0,0,0,0,0,0,0,-0.0042,-0.0042,0,-0.0103,-0.0104,-0.0105,-0.0154,-0.0155,-0.0155,-0.0156,-0.0301,-0.0304,-0.0308,0,0,0,0,0,0,0,0,0,0,0,0,0,0.0007,0.0007,-0.0042,-0.0042,-0.0043,-0.0103,-0.0104,-0.0105,-0.0154,-0.0155,-0.0155,-0.0156,-0.03,-0.0304,-0.0308,0,0,0,0,0,0,0,0,0,0,0,0,0,-0.0031,0.0007,-0.0042,-0.0074,-0.0078,-0.0103,-0.0104,-0.0105,-0.0154,-0.0155,-0.0155,-0.0156,-0.0298,-0.0303,-0.0309,-0.0329,0,0,-0.0325,-0.0327,0,0,0,0,0,0,0,0,-0.0029,-0.0033,-0.0069,-0.0072,-0.0076,-0.0121,-0.014,-0.0184,-0.0154,-0.0126,-0.0156,-0.0156,-0.0247,-0.0257,-0.0267,-0.0336,-0.0342,-0.0325,-0.0328,-0.0331,-0.0332,0,0,0,0,0,0,0,-0.0026,-0.0031,-0.0067,-0.0069,-0.0074,-0.0094,-0.01,-0.0148,-0.0185,-0.0129,-0.0132,-0.0137,-0.025,-0.0262,-0.0271,-0.0344,-0.0325,-0.033,-0.0333,-0.0335,-0.0465,-0.0465,0,0,0,0,0,0,-0.0014,-0.0028,-0.0065,-0.0069,-0.0052,-0.0094,-0.0101,-0.0107,-0.0183,-0.0194,-0.0136,-0.0139,-0.0253,-0.0265,-0.0277,-0.0316,-0.0331,-0.0335,-0.0338,-0.0465,-0.0465,-0.0466,0,0,0,0,0,0,-0.0013,-0.0017,-0.0063,-0.0049,-0.0056,-0.0094,-0.01,-0.0108,-0.0117,-0.0188,-0.0201,-0.0138,-0.0254,-0.0269,-0.0317,-0.0322,-0.0338,-0.0343,-0.0464,-0.0465,-0.0465,-0.0389,0,0,0,0,0,0,-0.0011,-0.0016,-0.0014,-0.0048,-0.0056,-0.0068,-0.01,-0.0108,-0.0119,-0.0123,-0.0193,-0.0207,-0.0256,-0.0309,-0.0322,-0.033,-0.0347,-0.0464,-0.0465,-0.0465,-0.0391,-0.0387,-0.0383,0,0,0,0,0,-0.0009,-0.0002,-0.0013,-0.0018,-0.0053,-0.0068,-0.0073,-0.0104,-0.0118,-0.0116,-0.0167,-0.0205,-0.0323,-0.0313,-0.0329,-0.0338,-0.0464,-0.0465,-0.0465,-0.0393,-0.0388,-0.0383,0,0,0,0,0,0,0.0017,-0.0008,-0.002,-0.0023,-0.0039,-0.0075,-0.0077,-0.0095,-0.0132,-0.014,-0.0206,-0.0224,-0.0269,-0.0313,-0.03,-0.0378,-0.0401,-0.0405,-0.0341,-0.0336,-0.0332,-0.031,-0.0351,0,0,0,0,0,0.0026,0.0025,-0.0001,-0.0003,-0.0008,-0.004,-0.0049,-0.0067,-0.0104,-0.012,-0.0167,-0.0227,-0.0284,-0.0315,-0.0367,-0.0406,-0.0441,-0.0425,-0.0421,-0.0417,-0.041,-0.0476,-0.0477,-0.0468,-0.0468,-0.0468,0,0,0.0035,0.0022,0.002,0.0003,-0.0014,-0.0018,-0.0047,-0.0054,-0.0064,-0.0132,-0.016,-0.0212,-0.029,-0.0335,-0.036,-0.0373,-0.0433,-0.0418,-0.0414,-0.041,-0.0477,-0.0478,-0.0479,-0.0468,-0.0468,-0.0468,0,0,0.0055,0.0043,0.005,0.0041,0.0025,0.0005,0.0008,-0.0021,-0.004,-0.0069,-0.0127,-0.0175,-0.0251,-0.0308,-0.035,-0.0355,-0.0407,-0.0376,-0.0343,-0.0406,-0.0407,-0.0409,-0.0427,-0.0431,-0.0378,-0.0378,-0.0377,0,0.0065,0.007,0.005,0.0056,0.0052,0.002,0.0027,0.0003,-0.0038,-0.0056,-0.0068,-0.0184,-0.024,-0.0314,-0.0312,-0.0345,-0.0376,-0.0351,-0.0399,-0.0402,-0.0405,-0.0423,-0.0429,-0.0374,-0.0374,-0.0375,-0.0375,0,0.0089,0.0095,0.01,0.0094,0.0088,0.0091,0.006,0.0049,0.0025,-0.0004,-0.0062,-0.0138,-0.0206,-0.0235,-0.0274,-0.0329,-0.034,-0.0381,-0.0405,-0.0401,-0.0421,-0.0427,-0.0369,-0.037,-0.0371,-0.0372,0,0,0.01,0.0115,0.0115,0.0125,0.011,0.0109,0.0095,0.0071,0.0062,0.0013,-0.0009,-0.0103,-0.0136,-0.0185,-0.0248,-0.0301,-0.0333,-0.0339,-0.0344,-0.0344,-0.0442,-0.0345,-0.0344,-0.0386,-0.0388,-0.0389,-0.0437,0,0.0122,0.0149,0.0146,0.0167,0.0178,0.0153,0.0145,0.0118,0.0087,0.0059,-0.0024,-0.0071,-0.0123,-0.0151,-0.0213,-0.0306,-0.0351,-0.0313,-0.0458,-0.0462,-0.0367,-0.0349,-0.0359,-0.0395,-0.0444,-0.0445,-0.0446,0,0.0142,0.016,0.0188,0.0209,0.0211,0.0215,0.0201,0.0192,0.014,0.0117,0.0057,-0.0004,-0.0085,-0.0128,-0.0278,-0.0251,-0.0332,-0.0403,-0.0408,-0.035,-0.0378,-0.0416,-0.0406,-0.0458,-0.0457,-0.0456,-0.0455,0,0.0156,0.0187,0.0214,0.0219,0.0232,0.0238,0.0241,0.0207,0.0206,0.0155,0.0152,0.0038,-0.0005,-0.0136,-0.0253,-0.0277,-0.0401,-0.0462,-0.0452,-0.0445,-0.0497,-0.0491,-0.0567,-0.0567,-0.0567,-0.0567,-0.0567,0,0.0176,0.0197,0.0226,0.024,0.0271,0.0271,0.029,0.0276,0.026,0.0266,0.0186,0.0172,-0.001,-0.0097,-0.0228,-0.0326,-0.0384,-0.0428,-0.0453,-0.0465,-0.0456,-0.0556,-0.0554,-0.0569,-0.0568,-0.0568,-0.0567,0,0.0183,0.0202,0.0236,0.0266,0.028,0.0301,0.0337,0.0348,0.0337,0.0344,0.0336,0.0266,0.0174,0.0016,-0.0176,-0.0264,-0.0393,-0.0419,-0.0382,-0.0398,-0.0404,-0.0398,-0.0424,-0.0421,-0.0419,-0.0417,-0.0415,0,0.0191,0.021,0.0255,0.0282,0.0299,0.0337,0.0363,0.0376,0.0394,0.0407,0.0414,0.0356,0.0327,0.0133,-0.0052,-0.0231,-0.0304,-0.0337,-0.0383,-0.0368,-0.0391,-0.0389,-0.0386,-0.0429,-0.0428,-0.0427,-0.0426,0,0.0207,0.0218,0.0246,0.0299,0.0338,0.039,0.0433,0.0464,0.0486,0.052,0.0554,0.0546,0.0394,0.0218,0.0022,-0.01,-0.0305,-0.031,-0.035,-0.0429,-0.0368,-0.0391,-0.039,-0.0415,-0.0416,-0.0417,-0.0417,-0.0418,0.021,0.0233,0.027,0.032,0.0373,0.044,0.0487,0.0548,0.0618,0.0694,0.0669,0.0644,0.0354,0.0114,-0.0034,-0.0155,-0.0174,-0.0291,-0.0299,-0.0307,-0.0264,-0.0199,-0.0204,-0.0204,-0.0204,-0.0204,-0.0204,0,0.0208,0.0242,0.0292,0.0357,0.0419,0.0449,0.0533,0.0599,0.0705,0.0756,0.0813,0.0497,0.0341,0.0101,-0.0063,-0.0185,-0.0234,-0.0223,-0.0314,-0.0323,-0.0331,-0.0293,-0.024,-0.024,-0.024,-0.024,0,0,0.0211,0.0247,0.0278,0.038,0.0439,0.0526,0.0582,0.0703,0.0749,0.0793,0.0746,0.0655,0.0303,0.0103,-0.0075,-0.0119,-0.0171,-0.0118,-0.0079,-0.017,-0.0176,-0.0363,-0.0312,0,0,0,0,0]}],[{"header":{"parameterUnit":"m.s-1","parameterCategory":2,"la1":30.2991,"la2":30.254,"lo1":-89.0895,"lo2":-89.0444,"dy":0.0017,"dx":0.0017,"nx":28,"ny":28,"refTime":"2024-07-12T21:00:00:Z","depth":"4","parameterNumber":2,"parameterNumberName":"U-component_of_CURRENTS"},"data":[0,0,0,0,0,0,0,0,0,0,0,0,0,0,0,0,0,0,0,0,0,0,0,0,0,0,0,0,0,0,0,0,0,0,0,0,0,0,0,0,0,0,0,0,0,0,0,0,0,0,0,0,0,0,0,0,0,0,-0.0032,-0.0031,0,-0.0026,-0.0026,-0.0026,-0.0001,-0.0,0.0001,0.0001,-0.0031,-0.0033,-0.0034,0,0,0,0,0,0,0,0,0,0,0,0,0,-0.0071,-0.0071,-0.0032,-0.0031,-0.0031,-0.0026,-0.0026,-0.0026,-0.0001,-0.0,0.0001,0.0002,-0.003,-0.0032,-0.0034,0,0,0,0,0,0,0,0,0,0,0,0,0,-0.0062,-0.0071,-0.0032,-0.0015,-0.0013,-0.0026,-0.0026,-0.0026,-0.0002,-0.0,0.0001,0.0002,-0.003,-0.0032,-0.0035,-0.0077,0,0,-0.0042,-0.0044,0,0,0,0,0,0,0,0,-0.0062,-0.0061,-0.0018,-0.0016,-0.0014,-0.001,-0.0052,-0.0044,-0.0002,-0.001,0.0002,0.0003,-0.0026,-0.0029,-0.0035,-0.0079,-0.008,-0.0043,-0.0044,-0.0045,-0.0046,0,0,0,0,0,0,0,-0.0063,-0.0061,-0.0033,-0.0018,-0.0015,-0.0025,-0.0022,-0.0051,-0.0029,-0.0009,-0.0006,-0.0001,-0.0026,-0.0033,-0.0036,-0.0081,-0.0043,-0.0045,-0.0046,-0.0047,-0.012,-0.0121,0,0,0,0,0,0,-0.0056,-0.0062,-0.0033,-0.0032,-0.0032,-0.0025,-0.0022,-0.0015,-0.0028,-0.0027,-0.0002,0.0001,-0.0029,-0.0033,-0.0037,-0.0043,-0.0045,-0.0048,-0.0049,-0.012,-0.012,-0.0121,0,0,0,0,0,0,-0.0057,-0.0053,-0.0033,-0.0044,-0.0042,-0.0025,-0.0018,-0.0016,-0.0001,-0.0021,-0.0022,0.0014,-0.0028,-0.0033,-0.0049,-0.0046,-0.0049,-0.0051,-0.0119,-0.012,-0.0121,-0.0084,0,0,0,0,0,0,-0.0058,-0.0054,-0.0045,-0.0044,-0.0041,-0.0029,-0.0019,-0.0017,0.0001,0.0004,-0.0009,-0.0011,-0.0028,-0.0045,-0.0051,-0.0049,-0.0053,-0.0119,-0.012,-0.012,-0.0085,-0.0083,-0.0082,0,0,0,0,0,-0.0059,-0.0053,-0.0045,-0.0041,-0.003,-0.0029,-0.0029,-0.0015,0.0001,0.0004,-0.0004,-0.001,-0.0054,-0.0047,-0.0055,-0.0053,-0.0118,-0.0119,-0.012,-0.0085,-0.0084,-0.0082,0,0,0,0,0,0,-0.0067,-0.0049,-0.004,-0.0028,-0.0023,-0.0023,-0.0015,-0.0006,-0.001,-0.0,-0.0018,-0.0022,-0.0035,-0.0054,-0.0046,-0.0078,-0.0087,-0.0089,-0.0058,-0.0056,-0.0055,-0.0036,-0.0055,0,0,0,0,0,-0.0065,-0.0053,-0.0042,-0.0033,-0.0026,-0.0018,-0.0013,-0.0003,-0.0005,-0.0003,-0.0008,-0.0024,-0.0051,-0.0058,-0.0082,-0.0102,-0.0112,-0.0106,-0.0105,-0.0103,-0.0094,-0.0124,-0.0124,-0.0124,-0.0124,-0.0124,0,0,-0.0068,-0.0054,-0.0049,-0.0033,-0.0026,-0.0021,-0.0012,0.0003,0.0004,-0.001,-0.0004,-0.002,-0.0056,-0.0075,-0.0082,-0.0085,-0.0106,-0.0104,-0.0103,-0.0094,-0.0125,-0.0124,-0.0124,-0.0124,-0.0124,-0.0124,0,0,-0.0066,-0.0051,-0.0038,-0.0031,-0.0011,-0.0012,-0.0002,0.0011,0.0017,0.0014,0.0001,-0.0009,-0.0037,-0.0063,-0.0083,-0.0093,-0.01,-0.0097,-0.0071,-0.0101,-0.0101,-0.0101,-0.0096,-0.0096,-0.0094,-0.0094,-0.0094,0,-0.0066,-0.0048,-0.0037,-0.0022,-0.0015,-0.0004,0.0006,0.0003,0.0009,0.0009,0.0024,-0.0015,-0.0036,-0.0076,-0.0068,-0.0089,-0.0091,-0.0072,-0.0098,-0.0098,-0.0099,-0.0094,-0.0094,-0.0092,-0.0092,-0.0092,-0.0092,0,-0.0057,-0.0039,-0.0031,-0.001,-0.0007,0.0005,0.0006,0.0013,0.0028,0.0027,0.0015,-0.0009,-0.0023,-0.0039,-0.0051,-0.0071,-0.0065,-0.0093,-0.0096,-0.0096,-0.0091,-0.0092,-0.009,-0.009,-0.0091,-0.0091,0,0,-0.0064,-0.0029,-0.0024,-0.0011,0.0005,0.0008,0.0008,0.0007,0.0011,0.0018,0.0019,-0.0012,0.0002,-0.0019,-0.0038,-0.0059,-0.0055,-0.0061,-0.0064,-0.0045,-0.0086,-0.0062,-0.006,-0.0083,-0.0083,-0.0084,-0.0074,0,-0.0056,-0.0023,-0.0014,0.0003,0.0017,0.002,0.0017,0.0016,0.0019,0.002,-0.0001,-0.0001,-0.0002,0.001,-0.0013,-0.0052,-0.0058,-0.0052,-0.0098,-0.0099,-0.0069,-0.0062,-0.0085,-0.0075,-0.0075,-0.0075,-0.0075,0,-0.005,-0.0027,0.0002,0.0019,0.0025,0.0038,0.0041,0.004,0.0031,0.0038,0.0039,0.0033,0.0019,0.0017,-0.0028,-0.0019,-0.0033,-0.0064,-0.0065,-0.0055,-0.0077,-0.0082,-0.0077,-0.0077,-0.0077,-0.0077,-0.0077,0,-0.0056,-0.0022,0.0006,0.0014,0.0034,0.0051,0.0063,0.0059,0.0057,0.0069,0.0075,0.0055,0.0057,0.0023,-0.0011,-0.0009,-0.0071,-0.0087,-0.0079,-0.0076,-0.0117,-0.0118,-0.0112,-0.0112,-0.0112,-0.0112,-0.0112,0,-0.0056,-0.0038,0.0017,0.0031,0.0058,0.0074,0.0092,0.01,0.0103,0.0093,0.0105,0.0071,0.006,0.0022,-0.0008,-0.0039,-0.0063,-0.0061,-0.0075,-0.01,-0.0099,-0.0116,-0.0117,-0.0112,-0.0112,-0.0112,-0.0112,0,-0.0074,-0.0036,-0.0007,0.004,0.0061,0.0085,0.012,0.0118,0.014,0.0128,0.0142,0.0099,0.0061,0.004,-0.0023,-0.0027,-0.0071,-0.0079,-0.0076,-0.0093,-0.0048,-0.0047,-0.0046,-0.0045,-0.0044,-0.0044,-0.0043,0,-0.008,-0.006,0.0003,0.0029,0.0061,0.0103,0.0118,0.0142,0.0134,0.0111,0.0088,0.0071,0.0045,-0.0013,-0.005,-0.0063,-0.0074,-0.0059,-0.0061,-0.0029,-0.0043,-0.0043,-0.0043,-0.0042,-0.0042,-0.0042,-0.0042,0,-0.0104,-0.0072,-0.0048,0.0017,0.0055,0.0075,0.0106,0.0105,0.0111,0.0123,0.007,0.0057,0.0011,-0.0028,-0.0011,-0.005,-0.0048,-0.0051,-0.0052,-0.0054,-0.0024,-0.0039,-0.004,-0.0039,-0.0039,-0.004,-0.004,0,-0.0123,-0.011,-0.0061,-0.0006,0.0037,0.0055,0.0065,0.0068,0.0072,0.0077,0.003,-0.0003,-0.0017,-0.0028,-0.0062,-0.0035,-0.0031,-0.0009,-0.0013,-0.0016,-0.0011,0.0031,0.003,0,0,0,0,0,-0.0139,-0.012,-0.0085,-0.003,0.0011,0.0041,0.0054,0.0055,0.0063,0.0045,0.0062,0.0021,0.001,-0.0048,-0.0013,-0.0063,-0.004,-0.0023,-0.002,-0.0024,-0.0027,-0.0026,0,0,0,0,0,0,-0.015,-0.0124,-0.0099,-0.0049,-0.0011,0.0015,0.0028,0.0023,0.0018,0.0031,0.0008,0.0045,0.0007,0.0004,-0.0009,-0.001,0.0001,-0.0026,-0.0025,-0.0023,-0.0025,-0.0028,-0.0027,0,0,0,0,0]},{"header":{"parameterUnit":"m.s-1","parameterCategory":2,"la1":30.2991,"la2":30.254,"lo1":-89.0895,"lo2":-89.0444,"dy":0.0017,"dx":0.0017,"nx":28,"ny":28,"refTime":"2024-07-12T21:00:00:Z","depth":"4","parameterNumber":3,"parameterNumberName":"V-component_of_CURRENTS"},"data":[0,0,0,0,0,0,0,0,0,0,0,0,0,0,0,0,0,0,0,0,0,0,0,0,0,0,0,0,0,0,0,0,0,0,0,0,0,0,0,0,0,0,0,0,0,0,0,0,0,0,0,0,0,0,0,0,0,0,-0.0167,-0.0168,0,-0.0206,-0.0207,-0.0207,-0.0262,-0.0264,-0.0265,-0.0266,-0.0317,-0.0317,-0.0318,0,0,0,0,0,0,0,0,0,0,0,0,0,-0.0119,-0.012,-0.0167,-0.0168,-0.0168,-0.0206,-0.0207,-0.0207,-0.0262,-0.0264,-0.0265,-0.0266,-0.0317,-0.0317,-0.0318,0,0,0,0,0,0,0,0,0,0,0,0,0,-0.0146,-0.012,-0.0167,-0.0202,-0.0205,-0.0206,-0.0207,-0.0207,-0.0262,-0.0264,-0.0265,-0.0267,-0.0317,-0.0317,-0.0318,-0.0288,0,0,-0.0319,-0.032,0,0,0,0,0,0,0,0,-0.0144,-0.0147,-0.0196,-0.0199,-0.0203,-0.0233,-0.0209,-0.0235,-0.0262,-0.0239,-0.0266,-0.0268,-0.029,-0.0292,-0.0294,-0.0291,-0.0293,-0.0319,-0.032,-0.032,-0.032,0,0,0,0,0,0,0,-0.0142,-0.0146,-0.0181,-0.0196,-0.0201,-0.0208,-0.0214,-0.0214,-0.0254,-0.0241,-0.0245,-0.0252,-0.0292,-0.0293,-0.0296,-0.0294,-0.0319,-0.032,-0.032,-0.032,-0.0351,-0.0352,0,0,0,0,0,0,-0.014,-0.0144,-0.018,-0.0182,-0.0179,-0.0208,-0.0214,-0.022,-0.0253,-0.026,-0.025,-0.0254,-0.0292,-0.0295,-0.0298,-0.0337,-0.032,-0.032,-0.0321,-0.0351,-0.0351,-0.0352,0,0,0,0,0,0,-0.0139,-0.0143,-0.0178,-0.0165,-0.0171,-0.0207,-0.0213,-0.022,-0.0253,-0.0261,-0.0268,-0.0281,-0.0293,-0.0297,-0.0323,-0.0337,-0.0321,-0.0321,-0.035,-0.0351,-0.0351,-0.037,0,0,0,0,0,0,-0.0137,-0.0142,-0.0157,-0.0165,-0.0172,-0.0196,-0.0212,-0.022,-0.0253,-0.026,-0.0288,-0.0293,-0.0295,-0.0322,-0.0324,-0.0338,-0.0322,-0.0349,-0.035,-0.0351,-0.0369,-0.0371,-0.0373,0,0,0,0,0,-0.0135,-0.0147,-0.0157,-0.0162,-0.0187,-0.0197,-0.0201,-0.0231,-0.0254,-0.0267,-0.029,-0.0294,-0.0329,-0.0323,-0.0324,-0.0339,-0.0349,-0.035,-0.0351,-0.0368,-0.0371,-0.0373,0,0,0,0,0,0,-0.0138,-0.0153,-0.0166,-0.0183,-0.0198,-0.0208,-0.0227,-0.0244,-0.0271,-0.0289,-0.0297,-0.0303,-0.0333,-0.0331,-0.0324,-0.0351,-0.034,-0.0342,-0.0352,-0.0355,-0.0358,-0.0358,-0.0322,0,0,0,0,0,-0.0142,-0.0156,-0.0169,-0.0185,-0.0195,-0.0215,-0.0229,-0.0248,-0.0267,-0.0283,-0.0303,-0.0321,-0.0331,-0.0342,-0.0352,-0.0361,-0.035,-0.0372,-0.0374,-0.0376,-0.0378,-0.0371,-0.0372,-0.0355,-0.0355,-0.0355,0,0,-0.0147,-0.0159,-0.0168,-0.0187,-0.0203,-0.0215,-0.0228,-0.0256,-0.0271,-0.0282,-0.0319,-0.0334,-0.0337,-0.0355,-0.0367,-0.0359,-0.0374,-0.0378,-0.0379,-0.038,-0.0372,-0.0374,-0.0375,-0.0356,-0.0356,-0.0356,0,0,-0.0157,-0.0176,-0.019,-0.0202,-0.0229,-0.0235,-0.0249,-0.0274,-0.0294,-0.032,-0.0335,-0.0359,-0.0377,-0.038,-0.0382,-0.0401,-0.0391,-0.041,-0.0418,-0.0411,-0.0412,-0.0413,-0.0395,-0.0394,-0.0406,-0.0406,-0.0406,0,-0.0168,-0.0183,-0.0196,-0.0211,-0.0224,-0.0247,-0.0263,-0.0276,-0.0309,-0.0322,-0.0339,-0.0375,-0.0385,-0.0395,-0.0406,-0.0406,-0.0398,-0.0406,-0.0413,-0.0414,-0.0415,-0.0396,-0.0395,-0.0407,-0.0407,-0.0407,-0.0407,0,-0.018,-0.02,-0.021,-0.0233,-0.0247,-0.0265,-0.0281,-0.0305,-0.0333,-0.0345,-0.038,-0.0393,-0.0413,-0.042,-0.042,-0.0431,-0.0422,-0.042,-0.0405,-0.0417,-0.0397,-0.0395,-0.0409,-0.0408,-0.0408,-0.0408,0,0,-0.0184,-0.0213,-0.0219,-0.0232,-0.0262,-0.0271,-0.0295,-0.0314,-0.0332,-0.0367,-0.0388,-0.0413,-0.043,-0.0434,-0.044,-0.0438,-0.0436,-0.0435,-0.0434,-0.0414,-0.0414,-0.0416,-0.0414,-0.0437,-0.0437,-0.0437,-0.0395,0,-0.0194,-0.0217,-0.0231,-0.0256,-0.0268,-0.0291,-0.0305,-0.0328,-0.0351,-0.0375,-0.0395,-0.0415,-0.0429,-0.0442,-0.0447,-0.0444,-0.0434,-0.0446,-0.0407,-0.0406,-0.0404,-0.0414,-0.0437,-0.0394,-0.0394,-0.0393,-0.0393,0,-0.0203,-0.0215,-0.0237,-0.0263,-0.0272,-0.0285,-0.0313,-0.0328,-0.0357,-0.0376,-0.0404,-0.0423,-0.0438,-0.0443,-0.0441,-0.045,-0.0435,-0.0426,-0.0424,-0.0419,-0.0406,-0.0381,-0.039,-0.039,-0.0391,-0.0391,-0.0391,0,-0.019,-0.0222,-0.0236,-0.0246,-0.0274,-0.0288,-0.0302,-0.0331,-0.0338,-0.0371,-0.0383,-0.0414,-0.0421,-0.0422,-0.0416,-0.043,-0.04,-0.041,-0.0391,-0.039,-0.039,-0.039,-0.0393,-0.0393,-0.0393,-0.0393,-0.0393,0,-0.0189,-0.0204,-0.0229,-0.0235,-0.0248,-0.0276,-0.029,-0.0309,-0.0331,-0.0339,-0.0378,-0.0386,-0.0417,-0.0411,-0.0409,-0.0395,-0.0389,-0.0393,-0.0383,-0.0398,-0.0399,-0.0389,-0.0389,-0.0391,-0.0392,-0.0392,-0.0392,0,-0.0175,-0.0195,-0.0208,-0.0234,-0.0241,-0.0248,-0.0266,-0.0275,-0.0298,-0.0309,-0.0317,-0.0354,-0.0362,-0.0372,-0.0364,-0.0375,-0.0361,-0.0345,-0.0348,-0.0338,-0.0358,-0.036,-0.0341,-0.0341,-0.034,-0.034,-0.034,0,-0.0169,-0.0175,-0.0195,-0.0196,-0.0207,-0.0219,-0.0227,-0.0252,-0.0259,-0.0285,-0.0288,-0.0305,-0.033,-0.032,-0.0335,-0.0329,-0.0327,-0.0318,-0.0363,-0.0363,-0.0354,-0.0356,-0.0358,-0.034,-0.034,-0.034,-0.034,0,-0.0153,-0.0163,-0.0172,-0.0167,-0.0173,-0.0186,-0.0199,-0.0202,-0.0234,-0.0243,-0.0267,-0.029,-0.0297,-0.0321,-0.0308,-0.0302,-0.0336,-0.0317,-0.0318,-0.0361,-0.0361,-0.0354,-0.0356,-0.0339,-0.0339,-0.0339,-0.0339,0,-0.014,-0.0142,-0.0148,-0.0145,-0.0144,-0.0163,-0.0178,-0.0197,-0.0208,-0.0244,-0.0243,-0.027,-0.0287,-0.0303,-0.0288,-0.0294,-0.0312,-0.0325,-0.0327,-0.0327,-0.0347,-0.0348,-0.0313,0,0,0,0,0,-0.0124,-0.013,-0.0125,-0.0141,-0.0136,-0.0133,-0.0161,-0.0182,-0.0206,-0.022,-0.0237,-0.0247,-0.0272,-0.0281,-0.0288,-0.0288,-0.0308,-0.0298,-0.0322,-0.0336,-0.0337,-0.0365,0,0,0,0,0,0,-0.0121,-0.0118,-0.0123,-0.0125,-0.0123,-0.0134,-0.0145,-0.0173,-0.0189,-0.0211,-0.022,-0.0238,-0.0254,-0.0253,-0.0279,-0.0283,-0.03,-0.0307,-0.0308,-0.0336,-0.0337,-0.0337,-0.0366,0,0,0,0,0]}]]